This is the latest recevied weather packets stored in our database for station/object VA3ZFM-10. If no packets are shown the sender has not sent any weather packets the latest 10 day(s).
| Time | Temp. | Humidity | Pressure | Rain* | Wind** | Luminosity | Snow |
|---|---|---|---|---|---|---|---|
| 1778166248 | 6.11° C | 47% | 1009.4 hPa | 0 mm | - | - | - |
| 1778165944 | 6.11° C | 48% | 1009.5 hPa | 0 mm | - | - | - |
| 1778165640 | 6.67° C | 47% | 1009.4 hPa | 0 mm | - | - | - |
| 1778165337 | 5.56° C | 50% | 1009.6 hPa | 0 mm | - | - | - |
| 1778165035 | 6.67° C | 49% | 1009.6 hPa | 0 mm | - | - | - |
| 1778164731 | 5.56° C | 51% | 1009.5 hPa | 0 mm | - | - | - |
| 1778164429 | 5.56° C | 51% | 1010 hPa | 0 mm | - | - | - |
| 1778164125 | 5.56° C | 53% | 1009.9 hPa | 0 mm | - | - | - |
| 1778163821 | 5.56° C | 52% | 1009.5 hPa | 0 mm | - | - | - |
| 1778163518 | 5.56° C | 52% | 1009.7 hPa | 0 mm | - | - | - |
| 1778163214 | 6.67° C | 50% | 1009.9 hPa | 0 mm | - | - | - |
| 1778162911 | 5.56° C | 52% | 1009.9 hPa | 0 mm | - | - | - |
| 1778162608 | 5.56° C | 52% | 1009.7 hPa | 0 mm | - | - | - |
| 1778162306 | 5.56° C | 51% | 1009.9 hPa | 0 mm | - | - | - |
| 1778162002 | 5.56° C | 51% | 1009.7 hPa | 0 mm | - | - | - |
| 1778161700 | 5.56° C | 51% | 1009.6 hPa | 0 mm | - | - | - |
| 1778161396 | 5.56° C | 52% | 1009.6 hPa | 0 mm | - | - | - |
| 1778161091 | 5.56° C | 52% | 1009.9 hPa | 0 mm | - | - | - |
| 1778160788 | 5° C | 54% | 1009.9 hPa | 0 mm | - | - | - |
| 1778160486 | 5.56° C | 53% | 1009.7 hPa | 0 mm | - | - | - |
| 1778160182 | 5° C | 54% | 1010 hPa | 0 mm | - | - | - |
| 1778159879 | 4.44° C | 55% | 1009.6 hPa | 0 mm | - | - | - |
| 1778159576 | 4.44° C | 56% | 1009.7 hPa | 0 mm | - | - | - |
| 1778159273 | 4.44° C | 57% | 1009.9 hPa | 0 mm | - | - | - |
| 1778158970 | 4.44° C | 58% | 1009.6 hPa | 0 mm | - | - | - |
* Rain latest hour (hover to see other rain measurements)
** Current wind speed in m/s (hover to see current wind gust speed)